Regional Weather Roundup
Issued by NWS

Home | Current Version | Previous Version | Graphics & Text | Print | Product List | Glossary Off
Versions: 1 2 3 4 5 6 7 8 9 10 11 12 13 14 15 16 17 18 19 20 21 22 23 24 25 26 27 28 29 30 31 32 33 34 35 36 37 38 39 40 41 42 43 44 45 46 47 48 49 50

000
ASUS44 KEWX 232203
RWRTX
SOUTH TEXAS REGIONAL WEATHER ROUNDUP
NATIONAL WEATHER SERVICE AUSTIN/SAN ANTONIO TX
500 PM CDT TUE MAY 23 2017

NOTE: "FAIR" INDICATED FEW OR NO CLOUDS BELOW 12,000 FEET WITH NO
SIGNIFICANT WEATHER AND/OR OBSTRUCTIONS TO VISIBILITY.

* - THESE STATIONS ARE NOT NWS OR FAA STATIONS...AND ARE NOT SUBJECT
    TO NWS AND FAA QUALITY CONTROL.

TXZ171-172-183>190-232300-
TEXAS HILL COUNTRY AND EDWARDS PLATEAU

CITY           SKY/WX    TMP DP  RH WIND       PRES   REMARKS
JUNCTION       CLOUDY    66  56  70 VRB5      29.99R
*LLANO         CLOUDY    64  57  77 N16G23    29.97R
BURNET         TSTM      64  60  87 N12G21    29.94R
*HORSESHOE BAY NOT AVBL
*KERRVILLE     CLOUDY    74  60  61 N22G28    29.91R
*FREDERICKSBRG CLOUDY    69  56  64 N21       29.93R
*ROCKSPRINGS   PTSUNNY   70  57  64 N15G25    29.99R
*BOERNE STAGE  PTSUNNY   77  57  50 N10G20    29.87F
*CASTROVILLE   PTSUNNY   82  62  51 NE7       29.83F
HONDO          CLOUDY    83  63  50 N8        29.81F
*UVALDE        TSTM      68  64  86 S10       29.86R
DEL RIO        CLOUDY    77  60  55 NW17G30   29.88S
LAUGHLIN AFB   NOT AVBL
CARRIZO SPRGS  PTSUNNY   82  70  65 NW6       29.81F
*EAGLE PASS    NOT AVBL
$$

TXZ173-191>194-202-209-217>225-228-232300-
CENTRAL AND SOUTH CENTRAL TEXAS

CITY           SKY/WX    TMP DP  RH WIND       PRES   REMARKS
GEORGETOWN     CLOUDY    72  59  64 NW17G23   29.86S
AUSTIN/BERGSTM PTSUNNY   80  62  54 N21G28    29.81F
AUSTIN/MABRY   CLOUDY    78  61  55 N10G18    29.84S
*AUSTIN/EXEC   PTSUNNY   75  63  64 N16G23    29.83F
*LAGO VISTA    CLOUDY    73  60  64 N14G22    29.89R
SAN MARCOS     PTSUNNY   82  63  51 N7        29.82S
NEW BRAUNFELS  TSTM      81  66  60 CALM      29.80S
RANDOLPH AFB   NOT AVBL
PT SAN ANTONIO NOT AVBL
SAN ANTONIO    PTSUNNY   82  61  48 NE7       29.81F
STINSON FIELD  TSTM      79  65  62 W10       29.79F
*LA GRANGE     PTSUNNY   85  65  52 N10       29.77F
*GIDDINGS      MOSUNNY   80  62  53 N7        29.81F
*GONZALES      MOSUNNY   86  66  50 N5        29.78F
$$

TXZ163>164-176>182-195>201-210>213-226-227-235-232300-
SOUTHEAST TEXAS

CITY           SKY/WX    TMP DP  RH WIND       PRES   REMARKS
COLLEGE STN    PTSUNNY   78  62  57 NW10G24   29.80F
*BRYAN         CLOUDY    77  60  57 NW13G21   29.82F
*CALDWELL      NOT AVBL
*CROCKETT      LGT RAIN  72  66  83 N6        29.81F
*BRENHAM       MOSUNNY   83  64  52 N12       29.81S
HUNTSVILLE     MOSUNNY   81  59  47 NW7       29.78F
CONROE         PTSUNNY   83  61  47 VRB5      29.77F
HOUSTON BUSH   MOSUNNY   86  63  45 N7        29.76F
HOUSTON HOBBY  MOSUNNY   85  62  46 N5        29.75F
*HOUSTON SW AP MOSUNNY   86  63  46 CALM      29.76F
PEARLAND       PTSUNNY   89  62  40 E7        29.76F
HOUSTON HOOKS  SUNNY     85  63  47 VRB5      29.77F
ELLINGTON FLD  NOT AVBL
SUGAR LAND     PTSUNNY   89  64  43 NW7       29.75F HX  90
*HOUSTON EXEC  MOSUNNY   86  63  45 NW12      29.78S
*CLEVELAND MUN SUNNY     82  65  55 NE5       29.79F
*WHARTON       SUNNY     84  61  45 SW5       29.78F
*COLUMBUS      CLOUDY    84  61  45 N6        29.78F HAZE
*EAGLE LAKE    CLOUDY    86  63  46 N6        29.78R
$$

TXZ214>216-236>238-232300-
THE UPPER TEXAS COAST

CITY           SKY/WX    TMP DP  RH WIND       PRES   REMARKS
*ORANGE        SUNNY     80  66  62 N5        29.78F
PORT ARTHUR    MOSUNNY   82  63  52 N10       29.76F
GALVESTON      SUNNY     82  67  60 NE9       29.77F
ANGLETON       MOSUNNY   87  67  51 W5        29.76F HX  90
*BAY CITY      SUNNY     86  65  49 CALM      29.76F
PALACIOS       MOSUNNY   85  65  51 N9        29.77F
$$

TXZ229>234-239>247-232300-
TEXAS COASTAL BEND AND RIO GRANDE PLAINS

CITY           SKY/WX    TMP DP  RH WIND       PRES   REMARKS
VICTORIA       PTSUNNY   88  66  48 VRB3      29.77F HX  90
*BEEVILLE      CLOUDY    88  67  50 N7        29.78S HX  91
ROCKPORT       PTSUNNY   82  70  66 SE8       29.77S
*PORT ARANSAS  MOSUNNY   81  71  72 SE7       29.78S
*PORT LAVACA   PTSUNNY   85  69  59 CALM      29.78F
*INGLESIDE     CLOUDY    85  72  64 E5        29.78S HX  91
CORPUS CHRISTI PTSUNNY   86  71  60 SE3       29.77F HX  91
CORPUS NAS     CLOUDY    83  73  72 SE7       29.78S
*ROBSTOWN      PTSUNNY   88  72  60 SE3       29.78S HX  95
ALICE          MOSUNNY   88  68  51 VRB6      29.76F HX  91
KINGSVILLE NAS PTSUNNY   88  72  58 E7        29.77F HX  94
COTULLA        CLOUDY    87  66  49 N5        29.80F
*FAITH RANCH   CLOUDY    84  70  61 NW6       29.82F
LAREDO         PTSUNNY   86  71  60 E5        29.79F HX  91
$$

TXZ248>255-232300-
DEEP SOUTH TEXAS

CITY           SKY/WX    TMP DP  RH WIND       PRES   REMARKS
BROWNSVILLE    CLOUDY    83  75  77 E7        29.77F HX  90
PORT ISABEL    LGT RAIN  79  77  94 E8        29.77S
*SOUTH PADRE   NOT AVBL
HARLINGEN      CLOUDY    84  76  76 SE15      29.76S HX  93
*HEBBRONVILLE  CLOUDY    85  68  55 E9        29.80F
MCALLEN        LGT RAIN  82  78  88 E13       29.76R HX  91
*WESLACO       LGT RAIN  85  73  66 E12G18    29.76S HX  91
FALFURRIAS     PTSUNNY   87  71  58 CALM      29.77F HX  93
EDINBURG       CLOUDY    90  71  53 E14G21    29.75F HX  96
*ZAPATA        MOSUNNY   87  71  57 CALM      29.77S HX  92
$$

TXZ213>215-236>238-242>244-246-247-251-254-255-232300-
CMAN STATIONS

STATION/POSITION TIME  TEMP    WIND        PRES    WAVE
                       AIR SEA DIR/SP/G            HT/PER
                 (UTC) (F)     (DEG/KT/KT) (MB)    (FT/S)
SABINE PASS      2130   78 81  360/ 10/ 13 1009.3
SEA RIM ST PARK  2100   78      20/  7/ 10 1008.8
NORTH JETTY/GLS  2130      80  110/  3/  6 1007.7
EAGLE POINT      2130   77 82   60/  6/  7 1008.0
MORGANS POINT    2130   80 80  140/  3/  6 1007.9
MISSION/ARANSAS  2100   78                 1009.0
PORT O`CONNOR    2130   81      CALM  /  2 1008.0
PORT ARANSAS     2100   77 81  110/  5/  6 1008.7
MALAQUITE BEACH  2130   77 82  100/  7/  8 1009.1
BAFFIN BAY       2130   80 83              1008.5
PORT ISABEL      2130   79 84  180/  4/  6 1008.2
$$

GMZ080-GMZ150>470-232300-
OFFSHORE BUOY REPORTS

STATION/POSITION TIME  TEMP    WIND        PRES    WAVE
                       AIR SEA DIR/SP/G            HT/PER
                 (UTC) (F)     (DEG/KT/KT) (MB)    (FT/S)
20 E GALVESTON   2050   74 80   40/  8/ 10 1008.4    2/ 7
90 E PT ARANSAS  2050   76 80   30/  4/  6 1008.7    4/ 8
35 NE PT MANSFLD 2050   78      70/ 12/ 14 1007.9    4/ 8
200 E PT ISABEL  2050   78 80  270/ 10/ 12 1007.6    3/ 6
$$



USA.gov is the U.S. government's official web portal to all federal, state and local government web resources and services.